Weather History for Augusta, ME

Change the Weather History Date:

Friday, January 10, 2014

  Actual Average Record
Temperature  
Mean Temperature 12 °F -  
Max Temperature 23 °F 25 °F 48 °F (2000)
Min Temperature 1 °F 10 °F -9 °F (2004)
Degree Days  
Heating Degree Days 53    
Moisture  
Dew Point 10 °F    
Average Humidity 80    
Maximum Humidity 88    
Minimum Humidity 68    
Precipitation  
Precipitation 0.00 in - - ()
Sea Level Pressure  
Sea Level Pressure 30.42 in    
Wind  
Wind Speed 2 mph (SSW)    
Max Wind Speed 7 mph    
Max Gust Speed -    
Visibility 8 miles    
Events Snow    
Averages and records for this station are not official NWS values.
T = Trace of Precipitation, MM = Missing Value Source: NWS Daily Summary

Daily Weather History Graph

Daily Weather History Graph

Search for Another Location

Airport:

Trip Planner

Search our weather history database for the weather conditions in past years. The results will help you decide how hot, cold, wet, or windy it might be!

Date:

Astronomy

Jan. 10, 2014 Rise Set
Actual Time 7:13 AM EST 4:20 PM EST
Civil Twilight 6:41 AM EST 4:52 PM EST
Nautical Twilight 6:05 AM EST 5:28 PM EST
Astronomical Twilight 5:30 AM EST 6:03 PM EST
Moon 12:24 PM EST (1/10) 2:14 AM EST (1/10)
Length of Visible Light 10h 11m
Length of Day
9h 06m
Waxing Gibbous, 75% of the Moon is Illuminated
Jan 10
Waxing Gibbous
Jan 15
Full
Jan 24
Last Quarter
Jan 30
New
Feb 6
First Quarter

Hourly Weather History & Observations

Time (EST) Temp. Windchill Dew Point Humidity Pressure Visibility Wind Dir Wind Speed Gust Speed Precip Events Conditions
12:53 AM 5.0 °F - -0.0 °F 80% 30.57 in 10.0 mi Calm Calm - N/A   Clear
1:53 AM 3.0 °F - -0.9 °F 84% 30.58 in 10.0 mi Calm Calm - N/A   Clear
2:53 AM 3.9 °F -3.4 °F -0.9 °F 80% 30.57 in 10.0 mi SSW 3.5 mph - N/A   Clear
3:53 AM 1.9 °F -5.6 °F -2.0 °F 83% 30.55 in 10.0 mi South 3.5 mph - N/A   Clear
4:53 AM 3.0 °F -6.4 °F -0.9 °F 84% 30.52 in 10.0 mi South 4.6 mph - N/A   Clear
5:53 AM 1.9 °F - -0.9 °F 88% 30.52 in 10.0 mi Calm Calm - N/A   Partly Cloudy
6:53 AM 1.9 °F - -0.9 °F 88% 30.51 in 10.0 mi Calm Calm - N/A   Clear
7:53 AM 1.9 °F -5.6 °F -2.0 °F 83% 30.49 in 8.0 mi South 3.5 mph - N/A   Scattered Clouds
8:53 AM 3.9 °F - -0.0 °F 84% 30.48 in 9.0 mi Calm Calm - N/A   Clear
9:53 AM 10.0 °F - 5.0 °F 80% 30.47 in 5.0 mi Calm Calm - N/A   Haze
10:53 AM 15.1 °F 7.7 °F 6.1 °F 68% 30.45 in 8.0 mi Variable 4.6 mph - N/A   Mostly Cloudy
11:53 AM 17.1 °F 7.6 °F 10.0 °F 74% 30.42 in 8.0 mi SSW 6.9 mph - 0.00 in   Overcast
12:41 PM 19.0 °F 12.3 °F 12.0 °F 74% 30.37 in 1.8 mi SW 4.6 mph - 0.00 in Snow Light Snow
12:50 PM 19.4 °F 10.4 °F 14.0 °F 80% 30.37 in 1.0 mi SW 6.9 mph - 0.00 in Snow Light Snow
12:53 PM 19.9 °F 11.1 °F 14.0 °F 78% 30.40 in 1.2 mi SW 6.9 mph - 0.00 in Snow Light Snow
1:04 PM 19.9 °F 13.4 °F 14.0 °F 78% 30.37 in 2.5 mi SW 4.6 mph - 0.00 in Snow Light Snow
1:12 PM 21.0 °F 16.2 °F 15.1 °F 78% 30.36 in 3.0 mi Variable 3.5 mph - 0.00 in Snow Light Snow
1:53 PM 21.0 °F 13.4 °F 15.1 °F 78% 30.38 in 10.0 mi SW 5.8 mph - 0.00 in   Overcast
2:53 PM 21.9 °F 14.5 °F 15.1 °F 75% 30.37 in 10.0 mi SW 5.8 mph - N/A   Overcast
3:53 PM 23.0 °F 18.4 °F 16.0 °F 74% 30.37 in 10.0 mi SW 3.5 mph - N/A   Overcast
4:53 PM 23.0 °F 18.4 °F 17.1 °F 78% 30.36 in 10.0 mi South 3.5 mph - N/A   Overcast
5:53 PM 23.0 °F - 17.1 °F 78% 30.35 in 10.0 mi Calm Calm - N/A   Overcast
6:53 PM 23.0 °F - 18.0 °F 81% 30.34 in 10.0 mi Calm Calm - N/A   Overcast
7:53 PM 21.9 °F - 17.1 °F 82% 30.34 in 9.0 mi Calm Calm - N/A   Mostly Cloudy
8:53 PM 21.0 °F - 16.0 °F 81% 30.33 in 10.0 mi Calm Calm - N/A   Overcast
9:53 PM 21.9 °F - 17.1 °F 82% 30.32 in 10.0 mi Calm Calm - N/A   Overcast
10:53 PM 21.0 °F - 18.0 °F 88% 30.31 in 7.0 mi Calm Calm - N/A   Overcast
11:53 PM 21.9 °F - 18.0 °F 85% 30.29 in 8.0 mi Calm Calm - N/A   Overcast